Regional Weather Roundup
Issued by NWS

Home | Current Version | Previous Version | Text Only | Print | Product List | Glossary On
Versions: 1 2 3 4 5 6 7 8 9 10 11 12 13 14 15 16 17 18 19 20 21 22 23 24 25 26 27 28 29 30 31 32 33 34 35 36 37 38 39 40 41 42 43 44 45 46 47 48 49 50
000
ASHW40 PHFO 060910
RWRHI

WEATHER ROUNDUP FOR HAWAII
NATIONAL WEATHER SERVICE HONOLULU HI
1100 PM HST SUN JUL 05 2015

THIS IS AN AUTOMATED REPORT THAT HAS NOT BEEN QUALITY CONTROLLED.

NOTE..."FAIR" INDICATES FEW OR NO CLOUDS BELOW 12,000 FEET WITH NO
SIGNIFICANT WEATHER AND/OR OBSTRUCTIONS TO VISIBILITY.

* - THESE SITES REPORT LIMITED FIELDS

HIZ001>004-061000-
KAUAI-NIIHAU-

CITY           SKY/WX    TMP DP  RH WIND       PRES   REMARKS
LIHUE APT      PTCLDY    78  69  73 NE12      30.03S
PORT ALLEN*    NOT AVBL
POIPU*           N/A     79 N/A N/A NE7G15      N/A
PRINCEVILLE*     N/A     72 N/A N/A MISG        N/A
KOKOLE POINT*  NOT AVBL
MOLOAA DAIRY*  NOT AVBL
WAIMEA HTS*    NOT AVBL
PUU OPAE*      NOT AVBL
PUU LUA*       NOT AVBL
MAKAHA RIDGE*  NOT AVBL
$$

HIZ005>011-061000-
OAHU-

CITY           SKY/WX    TMP DP  RH WIND       PRES   REMARKS
HONOLULU       PTCLDY    79  68  69 NE3       30.00R
KALAELOA       CLEAR     75  65  70 CALM      30.01S
KANEOHE MCB    PTCLDY    78  70  76 VRB3      29.99R
WHEELER FIELD  FAIR      71  65  81 CALM      30.01S
BELLOWS*       NOT AVBL
KAHUKU*        NOT AVBL
WHEELER*       NOT AVBL
WAIANAE HARBOR NOT AVBL
DILLINGHAM*      N/A     73  66  78 MISG        N/A
KAHUKU TRN*      N/A     75  68  78 E5G13       N/A
KAWAILOA*        N/A     72  68  88 NE8G15      N/A
KII*             N/A     79  72  78 E12         N/A
MAKUA RANGE*     N/A     75  66  73 E5          N/A
OAHU FOREST NW NOT AVBL
SCHOFIELD BRK*   N/A     68  63  83 W1          N/A
SCHOFIELD S*   NOT AVBL
WAIANAE VLY*   NOT AVBL
KUAOKALA*      NOT AVBL
HONOULIUULI*   NOT AVBL
MOKUOLOE IS*   NOT AVBL
PALEHUA*       NOT AVBL
WAIAWA PHB*    NOT AVBL
$$

HIZ012>013-061000-
MOLOKAI-

CITY           SKY/WX    TMP DP  RH WIND       PRES   REMARKS
MOLOKAI AIRPT  CLEAR     76  68  76 NE7       30.02R
KALAUPAPA      NOT AVBL
MAKAPULAPAI*   NOT AVBL
MOLOKAI 1*     NOT AVBL
PUU ALII*      NOT AVBL
$$

HIZ016-061000-
KAHOOLAWE-

CITY           SKY/WX    TMP DP  RH WIND       PRES   REMARKS
KAHOOLAWE*     NOT AVBL
HAKIOAWA*      NOT AVBL
HONOKANAIA*      N/A     78  68  72 N6G13     30.01S
KANELOA*         N/A     73  68  83 NE12G21   30.06S
KEALIALALO*    NOT AVBL
LUA MAKIKA*    NOT AVBL
$$

HIZ014>015-061000-
LANAI-

CITY           SKY/WX    TMP DP  RH WIND       PRES   REMARKS
LANAI CITY     FAIR      71  67  87 NE12      30.06R
LANAI 1*       NOT AVBL
$$

HIZ017>028-061000-
MAUI-

CITY           SKY/WX    TMP DP  RH WIND       PRES   REMARKS
KAHULUI        CLEAR     76  68  76 NE8       30.01R
KAPALUA-W MAUI NOT AVBL
HANA AIRPORT   MOCLDY    72  70  94 CALM      30.04S
HANA*          NOT AVBL
HALEAKALA SUMM   N/A     45  27  49 E16G28      N/A
MAALAEA BAY*   NOT AVBL
HALEAKALA*     NOT AVBL
KAUPO GAP*     NOT AVBL
KULA 1*          N/A     53  36  52 E3          N/A
$$

HIZ023>026-061000-
BIG ISLAND OF HAWAII COAST AND LOWER SLOPES-

CITY           SKY/WX    TMP DP  RH WIND       PRES   REMARKS
KAILUA KONA    CLEAR     79  69  71 E6        29.96R
HILO           CLOUDY    75  69  81 SW5       30.00S
HONOKAA*       NOT AVBL
KAWAIHAE MWT*  NOT AVBL
KAWAIHAE*        N/A     81 N/A N/A NE3         N/A
SOUTH POINT*   NOT AVBL
UPOLU AIRPORT* NOT AVBL
KAMUELA*       CLOUDY    66  64  94 NE17      30.09R
HAKALAU*         N/A     45  43  93 W3          N/A
KALOKO-HONOKO* NOT AVBL
PALI 2*          N/A     66  55  68 N9G18       N/A
KEALAKOMO*       N/A     66  52  59 N12G22      N/A
KAUPULEHU*     NOT AVBL
KAPAPALA*        N/A     65  63  94 N3          N/A
LOWER KAHUKU*  NOT AVBL
PUHE CS*       NOT AVBL
PUHO CS*       NOT AVBL
PTA KEAMUKU*     N/A     57  50  77 CALM        N/A
WAIKOLOA*      NOT AVBL
$$

HIZ027>028-061000-
BIG ISLAND OF HAWAII INTERIOR AND SUMMMITS-

CITY           SKY/WX    TMP DP  RH WIND       PRES   REMARKS
BRADSHAW FIELD CLEAR     51  45  79 SE6       30.31S
MK VISITOR CEN   N/A      0   0 100 MISG        N/A
MAUNA KEA*       N/A     37  -9  13 E20         N/A  WCI  27
MAUNA LOA*       N/A     45   5  19 MISG        N/A
MAUNA LOA 1*   NOT AVBL
PTA KIPUKA*      N/A     54  52  94 S3          N/A
PTA RANGE 17*    N/A     55  39  54 E8G14       N/A
PTA WEST*        N/A     55  54  94 SE8         N/A
NENE CABIN*    NOT AVBL
AHUMOA*        NOT AVBL
PTA PORTABLE*  NOT AVBL
PUU MALI*        N/A    N/A N/A N/A E9G18       N/A
$$

HIC003-061000-
NORTHWEST ISLANDS-

CITY           SKY/WX    TMP DP  RH WIND       PRES   REMARKS
MIDWAY ISLAND  CLEAR     75  66  73 NE6       30.06R
MIDWAY NOS*    NOT AVBL
FRENCH FRIGATE NOT AVBL
$$

PHZ110>124-180-061000-
BUOY REPORTS

STATION/POSITION TIME  TEMP    WIND        PRES    WAVE   SWELL
                       AIR SEA DIR/SP/G            HT/PER HT/DIR
                 (UTC) (F)     (DEG/KT/KT) (MB)    (FT/S) (FT/D)
BUOY 51001       NOT AVBL
BUOY 51101       0900   80 80  110/ 10/ 10 1016.9R   5/14   5/170
BUOY 51100       NOT AVBL
BUOY 51002       0900   80 81   70/ 12/ 14 1014.1S   5/17   5/340
BUOY 51003       0800   81 82   80/ 10/ 12 1014.9R   5/16   5
BUOY 51004       0752   79 80   50/ 14/ 17 1013.7R   6/ 8   5/100
BARBERS PT BUOY  NOT AVBL
WAIMEA BAY BUOY  0900      80                N/A     2/11   2/300
KAILUA BAY BUOY  0900      80                N/A     4/17   2/150
LANAI BUOY       NOT AVBL
BARBERS PT 2     0900      80                N/A     4/17   3/190
PAUWELA MAUI     0900      79                N/A     3/10
HILO             0900      80                N/A     4/ 9   2/110
KANEOHE BAY BUOY 0900      79                N/A     3/ 7
HANALEI KAUAI    0900      81                N/A     3/10   2/290
KAHULUI HARBOR   0900   78 82   60/  6/ 11 1015.9R
HONOLULU HARBOR  0900   80 80  100/  2/  3 1016.0S
KILO NALU        NOT AVBL
HILO HARBOR      0900   76 79  240/  3/  4 1015.6F
MOKUOLOE         0900   79 83   70/  6/  7 1016.2F
NAWILIWILI       0900   78 83   50/  7/  9 1016.5R
WHOTS BUOY       NOT AVBL
BUOY 51028       NOT AVBL
$$

......................KEY........................................
  SKY/WX - SKY CONDITIONS/PRESENT WEATHER
  TMP    - TEMPERATURE IN FAHRENHEIT
  DWPT   - DEWPOINT IN FAHRENHEIT
  RH     - RELATIVE HUMIDITY IN PERCENT
  WIND   - DIRECTION AND SPEED /MPH FOR ISLANDS...KTS FOR BUOYS/
  PRES   - MEAN SEA LEVEL PRESSURE IN INCHES OF HG
  VSB    - VISIBILITY IN MILES
  HX     - HEAT INDEX
  WCI    - WIND CHILL INDEX
  VRB    - VARIABLE WIND DIRECTION
  N/A    - NOT AVAILABLE



USA.gov is the U.S. government's official web portal to all federal, state and local government web resources and services.